Regional Weather Roundup
Issued by NWS

Home | Current Version | Previous Version | Graphics & Text | Print | Product List | Glossary On
Versions: 1 2 3 4 5 6 7 8 9 10 11 12 13 14 15 16 17 18 19 20 21 22 23 24 25 26 27 28 29 30 31 32 33 34 35 36 37 38 39 40 41 42 43 44 45 46 47 48 49 50
000
ASUS44 KMEG 232310
RWRTN
TENNESSEE HOURLY STATE WEATHER ROUNDUP
NATIONAL WEATHER SERVICE MEMPHIS TN
600 PM CDT SAT SEP 23 2017

TNZ002-004-019-021-049-052-054-088>092-240000-
WEST TENNESSEE

CITY           SKY/WX    TMP DP  RH WIND       PRES   REMARKS
MEMPHIS INTL   MOSUNNY   89  66  46 E6        29.96R HX  91
NWS MEMPHIS      N/A     88 N/A N/A MISG        N/A
JACKSON        CLEAR     88  69  53 E3        29.98S HX  92
DYERSBURG      CLEAR     88  68  51 E3        29.97F HX  91
SOMERVILLE     CLEAR     86  70  58 CALM      29.96S HX  90
COVINGTON      CLEAR     88  72  58 CALM      29.96S HX  94
BOLIVAR        CLEAR     86  68  54 CALM      29.97R
PARIS          CLEAR     86  68  54 E5        29.99R
HUNTINGDON     CLEAR     86  70  58 E6        29.98S HX  90
LEXINGTON      CLEAR     84  72  65 NE3       29.98S
SELMER         CLEAR     84  70  61 CALM      29.98R
SAVANNAH       CLEAR     86  72  62 CALM      29.97S HX  92
$$

TNZ008-025-027-028-033-062-065-066-240000-
NORTH MIDDLE TENNESSEE

CITY           SKY/WX    TMP DP  RH WIND       PRES   REMARKS
NASHVILLE      PTCLDY    85  67  54 NE7       30.01S
PORTLAND       CLEAR     82  68  61 NE6       30.02S
CLARKSVILLE    PTCLDY    85  66  53 NE6       30.01R
SMYRNA         PTCLDY    87  68  52 NE12      30.02S HX  90
COOKEVILLE     PTCLDY    70  68  94 CALM      30.04S
GALLATIN       CLEAR     86  68  54 NE5       30.04R
CROSSVILLE     CLEAR     78  65  63 N3        30.09S
$$

TNZ061-075-076-078-094-096-097-240000-
SOUTH MIDDLE TENNESSEE

CITY           SKY/WX    TMP DP  RH WIND       PRES   REMARKS
FAYETTEVILLE   CLEAR     73  72  94 CALM      30.01S
TULLAHOMA      CLEAR     79  64  61 CALM      30.04S
WINCHESTER     CLEAR     82  68  61 CALM      30.02S
MCMINNVILLE    CLEAR     75  75 100 CALM      30.04S
COLUMBIA       CLEAR     84 N/A N/A CALM      29.97F
SHELBYVILLE    CLEAR     82  68  61 E5        30.01S
$$

TNZ017-018-042-046-047-240000-
NORTHEAST TENNESSEE

CITY           SKY/WX    TMP DP  RH WIND       PRES   REMARKS
TRI CITIES     PTCLDY    83  62  49 CALM      30.05R
ELIZABETHTON   CLEAR     81  61  50 CALM      30.06S
$$

TNZ012-013-036-069-073-074-240000-
CENTRAL EAST TENNESSEE

CITY           SKY/WX    TMP DP  RH WIND       PRES   REMARKS
KNOXVILLE      PTCLDY    85  63  47 N6        30.02R
OAK RIDGE      CLEAR     84  66  54 VRB3      30.04R
DOWNTOWN KNOXV CLEAR     82  70  65 CALM      30.01S
GATLINBURG     CLEAR     86  57  37 CALM      30.01S
MORRISTOWN     MOCLDY    84  63  48 VRB6      30.03R
JACKSBORO      PTCLDY    82  66  57 CALM      30.07S
$$

TNZ083-085-099-240000-
SOUTHEAST TENNESSEE

CITY           SKY/WX    TMP DP  RH WIND       PRES   REMARKS
CHATTANOOGA    CLOUDY    78  66  66 S6        30.01S THUNDER
DAYTON         CLEAR     86  70  58 CALM      30.00F HX  90
$$

SKY/WX REPORTED AS FAIR MEANS FEW OR NO CLOUDS BELOW
12 THOUSAND FEET.





USA.gov is the U.S. government's official web portal to all federal, state and local government web resources and services.